Погода в Зарнене

Швейцария     46°53′52″N   8°14′47″E
темп.,
°C
ветер,
м/с
пор.,
м/с
влажн.,
%
обл.,
%
осадки,
мм/ч
давл.,
гПа
погр.,
м
9 марта, вт
вт901:00−2ююз019381 0.0 101921
04:00−3ю118846 0.0 101921
07:00−3ю128240 0.0 101923
10:00+2ссв1075100 0.0 1018299
13:00+4с1174100 0.1 1018710
16:00+4ссв1163100 0.3 10171044
19:000з118299 0.3 101922
22:00−1ю228496 0.0 102227
10 марта, ср
ср1001:00−2ю228483 0.0 102230
04:00−3ю228035 0.0 102231
07:00−4ю227641 0.0 102433
10:00+4в01611 0.0 1023504
13:00+7в11561 0.0 1021987
16:00+7в116018 0.0 1020799
19:00+1ю228127 0.0 102233
22:00+2ю2269100 0.0 102245
11 марта, чт
чт1101:00+2ю2261100 0.0 102132
04:00+3ю2260100 0.0 101929
07:00+4ююз2273100 0.0 101931
10:00+6зсз1275100 0.0 1018102
13:00+11ююз1475100 0.3 1016633
16:00+10ю2384100 0.1 1013144
19:00+6ююз389099 0.5 1015272
22:00+5юз229589 3.0 101750
12 марта, пт
пт1201:00+3зюз169794 14.6 1020541
04:00+3зсз1494100 1.2 1019311
07:00+2з1297100 2.1 1019153
10:00+3з1296100 1.1 1019244
13:00+3ююз1295100 2.8 1018274
16:00+6юз367797 0.8 10171117
19:00+1ю238856 1.3 101837
22:00+1ю338678 0.0 102064
13 марта, сб
сб1301:00−1ююз238347 0.0 102041
04:00−1ююз33800 0.0 101949
07:00−1ююз237917 0.0 101944
10:00+5зюз136997 0.0 1017457
13:00+9зюз245796 0.0 10151310
16:00+9зюз256166 0.0 10131356
19:00+4ююз228283 0.0 101333
22:00+2ю338099 0.0 101262